Wind_Speed
13 12 10 8 7 7 4 2 3 2 2 3 5 6 8 10 11 12 13 13 13 13 13 12 11 11 11 9 8 8 7 7 7 7 6 6 5 5 5 5 4 4 4 4
14 13 11 9 7 7 4 2 1 1 2 2 4 5 5 7 8 10 10 12 12 11 12 12 11 11 10 9 8 7 6 6 6 7 6 6 6 5 5 6 5 5 5 5
14 12 12 11 9 6 4 3 3 3 3 3 4 5 4 4 5 6 8 10 10 10 11 11 10 10 9 9 9 8 7 7 6 5 5 5 5 5 5 5 6 5 5 5
16 14 13 12 10 6 5 4 5 5 5 4 4 5 5 3 3 4 6 7 7 8 8 9 9 9 9 8 8 8 8 7 6 5 5 4 4 5 5 6 6 5 5 5
17 14 13 12 10 8 7 6 6 6 6 6 6 6 4 4 3 2 4 5 5 6 6 6 7 7 7 7 7 7 7 7 7 7 6 5 5 5 6 5 5 5 5 5
17 16 14 12 10 9 9 9 9 9 9 9 6 7 5 5 4 3 4 4 5 5 5 5 5 5 6 6 6 6 6 6 6 7 7 6 6 6 6 6 6 6 6 6
18 17 14 13 12 12 13 12 12 10 10 9 8 7 6 5 4 4 4 5 5 5 5 4 4 4 5 5 6 6 6 6 6 7 7 6 6 6 6 7 7 7 7 7
19 17 15 15 15 14 14 13 13 11 10 10 10 8 7 7 5 4 5 6 7 6 5 5 5 4 5 5 5 6 7 7 7 7 7 7 7 7 7 7 7 7 8 9
20 18 16 16 16 15 15 14 13 13 12 12 11 9 8 9 8 7 7 6 6 6 5 6 5 5 5 5 5 6 7 8 8 8 8 7 7 8 8 8 8 8 9 9
21 20 17 17 18 18 17 16 16 15 13 13 11 10 10 8 9 9 7 6 6 6 6 6 6 6 7 7 6 7 8 8 9 9 9 9 8 8 9 9 9 10 10 10
22 22 20 20 21 20 19 18 18 17 16 15 14 13 11 11 11 11 10 9 9 8 8 7 7 7 8 9 9 9 9 10 10 11 11 11 10 10 10 11 11 11 12 11
23 24 23 23 22 21 21 20 20 20 19 19 18 16 14 12 11 11 12 11 10 10 10 10 9 10 10 10 10 11 12 12 12 13 13 14 13 12 13 13 13 13 13 13
25 25 24 24 24 25 24 23 23 23 22 21 21 19 16 16 16 15 15 14 13 12 13 13 12 11 11 11 12 13 14 14 14 15 15 16 16 15 15 15 15 15 15 15
27 27 26 26 26 26 26 26 25 25 25 24 23 22 20 19 19 18 18 17 15 15 15 14 14 14 14 13 14 15 16 16 16 17 17 18 18 17 17 17 16 15 15 16
29 29 29 27 27 28 28 28 27 27 26 27 26 24 23 23 21 21 21 20 18 17 17 17 17 17 16 16 16 17 17 18 18 19 19 19 19 19 18 18 17 16 17 17
30 31 30 29 29 29 29 29 29 29 29 29 28 27 26 26 24 24 24 24 22 20 20 20 20 20 19 18 18 19 19 19 20 20 20 20 20 20 19 19 19 19 19 20
30 31 31 31 30 30 31 30 31 31 30 30 31 29 28 28 28 27 26 25 24 23 23 23 23 22 22 22 22 21 21 21 21 22 21 22 22 23 22 22 22 23 23 23
31 32 32 32 32 34 32 31 31 33 32 31 31 31 31 30 29 28 27 27 26 26 25 24 24 25 25 25 25 24 24 24 24 25 25 26 25 25 24 24 24 25 25 26
30 31 31 32 32 33 31 31 32 33 34 33 33 32 32 32 31 30 30 29 28 27 27 26 26 27 27 27 27 27 27 27 27 27 27 27 27 27 27 27 27 27 28 29
29 30 31 32 32 33 31 31 32 33 34 33 33 33 33 33 32 31 31 30 29 29 29 29 29 30 30 30 30 30 30 30 30 29 29 29 29 30 29 29 29 29 30 30
29 30 31 32 33 33 32 32 32 34 33 33 33 33 33 33 33 33 32 32 32 32 31 31 32 32 32 32 32 33 33 34 33 32 32 31 31 32 32 31 31 31 31 31
30 30 32 33 33 33 33 33 33 33 33 33 33 33 33 34 34 34 34 34 34 35 35 34 35 34 35 35 35 35 36 36 36 35 34 33 33 33 33 33 33 33 32 31
30 30 31 33 34 33 34 34 34 34 33 32 33 33 34 35 36 36 36 36 36 37 38 38 38 38 39 39 38 37 37 36 36 36 36 35 35 35 35 35 34 34 33 33
32 31 32 33 34 34 35 36 35 35 34 34 34 34 35 35 36 36 37 37 38 39 39 39 40 40 40 39 38 38 37 37 36 36 37 37 36 36 36 35 35 35 34 33
32 32 33 34 35 35 35 36 37 37 36 35 35 35 36 36 37 37 37 38 40 40 40 40 40 40 40 39 39 38 37 38 37 36 37 37 37 37 36 36 36 36 35 35
33 33 33 33 34 34 34 35 36 36 34 34 35 36 36 37 37 37 38 39 39 40 40 41 41 41 41 40 40 39 39 38 38 37 36 36 37 37 37 36 36 36 36 36
Wind_Direction
180 175 169 165 158 142 125 90 25 19 28 21 17 30 29 28 36 39 37 37 44 48 49 49 51 54 54 57 64 66 65 66 66 66 64 62 54 49 43 34 27 13 359 356
183 174 167 171 173 152 151 208 311 279 260 309 330 354 14 18 29 38 35 32 36 45 47 46 47 50 52 54 57 60 60 57 57 55 54 54 47 42 34 22 14 9 356 348
186 176 174 173 177 168 167 218 250 267 268 288 315 339 357 21 26 31 32 32 36 37 41 42 43 46 48 49 52 53 51 46 43 44 41 36 31 22 12 5 2 358 348 343
191 185 185 181 183 188 198 219 246 249 256 271 301 318 338 344 359 21 29 31 37 33 35 38 39 42 41 41 45 46 45 41 33 25 19 14 6 1 355 354 351 346 342 342
195 193 191 184 187 199 213 228 249 248 251 263 285 296 309 312 317 2 16 17 33 25 28 30 33 36 35 32 34 35 33 33 31 24 15 3 353 345 341 339 340 343 341 338
202 200 198 187 188 210 225 233 248 252 255 256 270 276 290 299 310 333 1 8 15 23 24 18 23 26 24 23 25 24 20 19 17 15 12 7 359 348 341 335 338 339 336 332
207 205 200 196 205 218 224 230 239 243 248 258 262 273 294 300 304 307 325 337 350 3 1 358 4 11 5 7 7 8 6 3 3 1 360 356 352 348 348 345 343 337 330 327
211 207 207 206 217 222 223 229 235 243 250 257 261 274 289 286 278 280 297 319 331 334 338 333 343 348 347 346 344 344 345 349 351 349 347 344 340 337 335 334 336 333 330 332
214 212 214 216 220 224 226 230 235 243 250 256 262 262 267 277 260 270 289 317 325 323 335 336 330 336 336 334 333 332 334 335 338 339 337 333 331 329 329 327 326 325 324 325
220 218 215 219 222 229 233 235 236 240 246 251 257 263 272 266 255 263 276 294 300 306 320 330 328 321 322 325 326 323 322 323 323 326 327 323 322 322 319 319 318 316 314 315
224 224 221 223 226 227 231 235 236 237 240 246 254 259 264 276 270 261 262 276 286 292 304 313 313 314 313 313 315 313 317 314 312 314 315 313 311 310 306 306 306 305 306 307
228 228 227 227 230 229 234 235 235 235 238 243 251 253 256 262 272 269 266 269 277 279 290 296 299 300 298 302 304 309 309 311 309 308 307 305 304 303 301 299 300 301 302 303
231 232 232 228 227 229 233 237 239 239 240 244 248 250 252 253 261 264 267 268 270 276 285 287 290 292 288 291 297 304 304 305 307 305 304 302 301 298 297 298 298 298 298 298
233 236 236 234 232 231 233 235 237 240 242 243 245 250 252 252 257 263 265 264 265 272 278 284 285 286 283 285 291 296 297 299 301 301 300 298 298 296 296 297 299 298 297 298
237 241 240 239 236 236 236 237 238 240 243 244 244 246 250 253 256 260 263 265 268 270 274 278 280 281 282 284 289 293 294 295 296 295 296 296 296 296 294 297 297 297 298 298
238 240 240 239 238 238 238 238 240 243 245 247 247 248 251 253 252 254 258 263 264 269 275 275 277 280 284 286 289 292 293 292 292 293 291 294 293 294 295 294 290 293 296 296
237 239 240 240 240 241 241 239 240 242 245 249 251 252 253 254 253 254 258 262 265 267 269 273 278 280 282 284 286 288 290 290 290 291 290 292 291 292 292 290 289 291 293 293
238 238 240 240 241 242 243 241 243 244 245 248 254 254 252 256 257 257 260 262 264 266 268 271 274 275 279 282 283 284 285 286 287 289 289 289 290 290 289 287 288 288 290 291
240 239 241 242 243 245 244 243 244 247 248 250 252 254 252 254 256 258 260 261 264 265 267 269 270 272 274 276 279 281 283 285 286 287 288 288 288 288 287 286 286 287 287 288
242 242 244 245 245 246 247 247 247 249 251 251 251 253 253 254 255 258 261 262 263 264 265 266 267 269 272 275 276 278 281 283 283 284 284 285 285 285 286 286 286 286 287 288
245 245 245 245 246 248 249 250 250 250 251 251 252 252 253 254 257 258 259 261 263 265 267 268 269 269 270 273 275 276 279 281 281 281 282 282 283 284 284 285 287 287 287 288
245 247 248 247 247 250 251 253 254 253 252 252 253 253 254 254 256 257 259 262 265 266 267 268 270 271 272 272 273 275 277 278 278 279 280 281 281 283 284 285 286 287 287 289
248 247 248 249 251 253 253 254 257 257 255 256 257 257 257 257 257 258 260 262 265 267 268 269 271 272 273 274 274 274 276 276 276 276 278 279 280 281 282 283 284 284 286 287
248 248 248 249 250 253 255 256 258 259 258 258 257 257 259 259 259 260 261 263 265 267 269 271 272 273 273 275 276 274 274 275 274 275 276 276 277 278 280 281 282 283 283 284
250 250 252 253 254 256 257 258 259 260 260 258 256 256 259 260 260 260 262 264 266 268 270 271 272 273 274 274 275 276 275 276 275 275 275 275 276 278 279 281 282 282 282 282
252 251 253 255 256 258 259 260 260 259 260 259 257 256 260 261 262 263 264 266 267 268 269 271 272 273 273 274 275 276 277 276 274 274 275 276 275 277 279 280 281 282 281 279
Height
5920 5923 5924 5924 5925 5926 5926 5927 5927 5927 5927 5928 5927 5927 5927 5926 5925 5924 5923 5922 5920 5919 5918 5916 5915 5914 5913 5912 5911 5911 5910 5910 5910 5909 5908 5908 5907 5907 5906 5906 5905 5904 5904 5903
5919 5921 5923 5923 5924 5925 5926 5927 5927 5928 5927 5927 5927 5927 5927 5926 5926 5925 5924 5922 5921 5920 5919 5918 5917 5915 5915 5914 5913 5912 5911 5911 5910 5910 5909 5909 5908 5907 5906 5905 5904 5904 5903 5902
5917 5920 5921 5922 5923 5924 5925 5926 5927 5927 5927 5927 5927 5927 5926 5925 5925 5925 5924 5923 5922 5921 5921 5920 5918 5917 5916 5915 5914 5913 5912 5912 5911 5910 5910 5909 5908 5908 5907 5905 5904 5903 5902 5901
5915 5918 5919 5920 5922 5922 5924 5925 5926 5926 5926 5926 5927 5926 5927 5926 5925 5925 5924 5923 5922 5922 5921 5921 5919 5918 5917 5916 5915 5914 5913 5912 5911 5910 5910 5909 5908 5907 5906 5905 5904 5903 5902 5900
5913 5915 5916 5918 5920 5921 5923 5924 5925 5925 5925 5926 5926 5926 5927 5925 5925 5924 5924 5923 5923 5922 5921 5921 5920 5919 5918 5917 5916 5914 5913 5912 5911 5910 5909 5908 5908 5907 5906 5904 5903 5902 5901 5899
5911 5913 5914 5916 5918 5920 5921 5922 5923 5923 5924 5925 5925 5925 5925 5924 5924 5924 5923 5923 5922 5922 5922 5921 5920 5919 5918 5917 5916 5915 5914 5912 5911 5910 5909 5908 5907 5906 5905 5904 5902 5901 5899 5898
5908 5910 5911 5913 5916 5918 5919 5920 5921 5921 5922 5923 5923 5923 5924 5923 5923 5923 5922 5922 5921 5921 5921 5920 5920 5919 5918 5917 5916 5915 5914 5912 5911 5910 5908 5907 5906 5905 5904 5902 5901 5900 5898 5897
5904 5907 5909 5910 5912 5914 5916 5917 5919 5919 5919 5920 5920 5920 5922 5921 5921 5920 5920 5920 5919 5919 5919 5919 5919 5918 5917 5917 5915 5914 5913 5911 5910 5909 5908 5906 5905 5904 5902 5901 5899 5898 5897 5895
5900 5904 5906 5907 5909 5911 5912 5913 5915 5916 5916 5916 5917 5917 5917 5917 5917 5918 5918 5917 5917 5918 5917 5918 5917 5917 5916 5915 5915 5914 5912 5911 5909 5908 5906 5905 5904 5902 5901 5900 5898 5896 5895 5893
5896 5899 5902 5904 5906 5907 5908 5910 5911 5912 5912 5913 5913 5914 5914 5913 5914 5915 5915 5915 5916 5916 5916 5916 5916 5916 5915 5914 5913 5912 5911 5910 5908 5906 5905 5903 5902 5900 5899 5897 5896 5894 5892 5891
5892 5895 5898 5900 5901 5902 5905 5906 5906 5907 5909 5910 5910 5912 5911 5911 5911 5911 5912 5913 5913 5914 5914 5914 5914 5914 5913 5912 5911 5910 5909 5908 5906 5904 5903 5901 5899 5898 5896 5895 5893 5891 5889 5888
5887 5890 5892 5895 5897 5898 5900 5901 5902 5904 5905 5905 5906 5910 5908 5908 5908 5908 5909 5910 5910 5910 5911 5911 5911 5911 5911 5910 5909 5907 5905 5904 5903 5901 5900 5898 5896 5895 5893 5891 5890 5888 5886 5884
5882 5884 5887 5890 5893 5894 5894 5896 5897 5898 5900 5900 5901 5905 5904 5904 5904 5904 5905 5906 5907 5907 5908 5908 5908 5908 5908 5907 5905 5904 5902 5901 5899 5897 5896 5894 5893 5891 5890 5888 5886 5884 5882 5880
5875 5878 5881 5884 5885 5887 5889 5890 5892 5893 5894 5895 5897 5898 5899 5899 5899 5900 5901 5901 5902 5903 5904 5904 5904 5904 5904 5903 5902 5900 5899 5897 5895 5893 5892 5890 5889 5887 5885 5883 5882 5880 5878 5876
5869 5871 5874 5877 5880 5882 5883 5885 5886 5887 5888 5890 5891 5892 5894 5894 5895 5895 5895 5896 5898 5898 5898 5899 5899 5899 5899 5898 5897 5896 5895 5893 5891 5889 5887 5886 5884 5882 5880 5879 5877 5874 5873 5871
5862 5864 5867 5870 5873 5875 5877 5879 5881 5882 5883 5884 5885 5887 5888 5889 5890 5890 5891 5891 5892 5893 5893 5893 5893 5893 5893 5892 5892 5891 5890 5888 5886 5884 5883 5880 5878 5876 5875 5873 5872 5870 5867 5866
5855 5858 5860 5863 5865 5868 5870 5873 5874 5875 5876 5878 5879 5881 5882 5883 5884 5884 5885 5886 5886 5887 5888 5887 5887 5886 5886 5886 5886 5885 5884 5882 5880 5878 5876 5874 5872 5870 5869 5868 5866 5864 5862 5860
5848 5850 5852 5855 5858 5859 5865 5865 5867 5868 5869 5871 5872 5873 5875 5876 5877 5878 5879 5879 5880 5881 5881 5881 5881 5880 5880 5879 5879 5878 5878 5876 5874 5872 5870 5868 5866 5864 5863 5861 5860 5858 5856 5853
5841 5843 5845 5847 5849 5851 5855 5857 5859 5860 5861 5863 5864 5866 5867 5868 5870 5871 5872 5872 5873 5873 5874 5874 5874 5874 5873 5872 5871 5871 5870 5869 5867 5866 5863 5861 5859 5857 5855 5854 5852 5850 5848 5846
5833 5835 5838 5839 5841 5843 5847 5849 5850 5852 5852 5854 5856 5857 5858 5860 5862 5864 5864 5864 5865 5865 5866 5866 5866 5866 5865 5864 5864 5863 5862 5861 5860 5858 5856 5853 5851 5849 5847 5845 5843 5842 5840 5837
5826 5827 5829 5831 5832 5834 5838 5840 5841 5843 5845 5846 5847 5848 5849 5851 5853 5855 5855 5856 5856 5856 5857 5857 5857 5857 5856 5855 5854 5853 5853 5852 5850 5849 5847 5845 5843 5840 5838 5836 5834 5832 5830 5828
5818 5820 5821 5823 5825 5829 5830 5831 5833 5834 5836 5837 5838 5839 5840 5842 5844 5845 5846 5846 5847 5847 5847 5847 5847 5847 5846 5845 5844 5843 5842 5841 5840 5838 5837 5835 5833 5831 5829 5827 5825 5822 5821 5819
5809 5812 5813 5815 5818 5819 5820 5822 5823 5824 5826 5827 5828 5830 5831 5832 5834 5835 5836 5836 5836 5836 5836 5836 5836 5836 5835 5834 5832 5832 5831 5830 5829 5827 5826 5825 5823 5821 5819 5817 5815 5813 5811 5809
5801 5803 5805 5806 5808 5810 5811 5812 5814 5815 5816 5817 5818 5819 5820 5822 5823 5824 5825 5826 5826 5826 5826 5825 5825 5824 5823 5822 5821 5820 5819 5818 5817 5816 5815 5814 5812 5811 5808 5806 5804 5802 5801 5799
5793 5794 5795 5797 5799 5800 5802 5803 5804 5805 5806 5807 5808 5809 5810 5811 5813 5814 5814 5815 5815 5815 5814 5814 5813 5812 5811 5811 5810 5809 5807 5807 5805 5804 5803 5802 5801 5799 5798 5796 5794 5792 5790 5788
5784 5785 5786 5787 5790 5791 5792 5793 5794 5795 5796 5797 5798 5800 5800 5801 5802 5803 5803 5803 5803 5802 5802 5802 5801 5800 5799 5799 5798 5797 5796 5795 5794 5793 5791 5790 5789 5788 5786 5785 5784 5781 5780 5778